Hourly Data Report for July 22, 2021

NORTH CAPE
PRINCE EDWARD ISLAND
Current Station Operator: ECCC - MSC

47°03'29.000" N
63°59'55.000" W
7.60 m
8300516
71987
WNE

Download Data

Hourly Data (July 2021)
Hourly Data Report for July 22, 2021
TIME
LST
Temp Definition
°C
Dew Point Definition
°C
Rel Hum Definition
%
Precip. Amount Definition
mm

Wind Dir Definition
10's deg

Wind Spd Definition
km/h
Visibility Definition
km
Stn Press Definition
kPa
Hmdx Definition


Wind Chill Definition


Weather Definition


00:00 16.1 14.3 89 0.0 5 33   101.09     LegendNANA
01:00 15.8 14.1 90 0.0 5 27   101.07     LegendNANA
02:00 15.6 13.3 86 0.0 5 28   101.04     LegendNANA
03:00 15.3 14.0 92 0.0 1 21   101.09     LegendNANA
04:00 15.1 13.9 93 0.0 1 29   101.08     LegendNANA
05:00 14.8 13.4 91 0.2 2 30   101.08     LegendNANA
06:00 15.3 14.0 92 0.0 2 30   101.09     LegendNANA
07:00 15.6 13.5 87 0.0 1 32   101.08     LegendNANA
08:00 16.0 14.2 89 0.0 2 35   101.06     LegendNANA
09:00 16.1 13.9 87 0.0 1 34   101.10     LegendNANA
10:00 16.2 13.9 87 0.0 2 33   101.08     LegendNANA
11:00 16.1 13.8 87 0.0 2 33   101.07     LegendNANA
12:00 16.2 14.4 89 0.0 1 29   101.04     LegendNANA
13:00 16.2 14.3 89 0.0 1 32   101.03     LegendNANA
14:00 16.3 14.3 88 0.0 1 26   101.07     LegendNANA
15:00 16.6 14.7 88 0.0 1 26   101.08     LegendNANA
16:00 16.3 14.6 90 0.0 36 25   101.11     LegendNANA
17:00 16.3 14.1 87 0.0 2 29   101.09     LegendNANA
18:00 16.3 14.1 87 0.0 1 26   101.13     LegendNANA
19:00 16.0 13.6 86 0.0 1 27   101.18     LegendNANA
20:00 16.0 13.3 84 0.0 1 24   101.24     LegendNANA
21:00 16.1 13.4 84 0.0 2 23   101.31     LegendNANA
22:00 15.8 13.1 84 0.0 36 18   101.31     LegendNANA
23:00 15.7 13.0 84 0.0 36 19   101.31     LegendNANA

Notes on Data Quality.

Legend

  • E = Estimated
  • M = Missing
  • NA = Not Available*
  • [empty] = Indicates an unobserved value
Date modified: